Location: Haliburton Scout Reserve
(45.0900°N, 78.3200°W)
Time: 02:56:24
(UTC-04:00)

Cosmos 1315 - Visible Passes

Search period start: 02 September 2014 00:00
Search period end: 12 September 2014 00:00
Orbit: 413 x 419 km, 81.1° (Epoch: 01 September)

Date Brightness Start Highest point End Pass type
(mag) Time Alt. Az. Time Alt. Az. Time Alt. Az.
03 Sep 5.7 05:45:47 10° SE 05:48:15 20° E 05:50:44 10° NE visible
05 Sep 4.5 05:46:25 10° SSE 05:49:24 36° E 05:52:25 10° NNE visible
06 Sep 6.0 05:02:02 10° ESE 05:03:24 12° E 05:04:46 10° ENE visible
07 Sep 3.1 05:47:17 10° S 05:50:30 68° E 05:53:44 10° NNE visible
08 Sep 5.4 05:01:51 10° SE 05:04:20 21° E 05:06:49 10° NE visible
09 Sep 2.7 05:48:18 10° SSW 05:51:30 63° WNW 05:54:45 10° N visible
10 Sep 4.3 05:02:12 10° SSE 05:05:11 35° E 05:08:11 10° NNE visible
11 Sep 5.9 04:17:41 10° ESE 04:19:02 12° E 04:20:22 10° ENE visible
11 Sep 3.5 05:49:55 13° SW 05:52:27 34° WNW 05:55:28 10° N visible
